EW6430 Weather Reports


time (UTC)temp
C
wind
direction
speed
KPH
gust
KPH
rain 1hr
cm
rain 24hr
cm
rain mn
cm
humidity
%
barometer
mb
20260902163320 22 309 1.6 6.4 0.00 0.00 0.00 65 1017.7
20260902163103 22 309 1.6 6.4 0.00 0.00 0.00 64 1017.6
20260902162822 22 311 1.6 6.4 0.00 0.00 0.00 65 1017.8
20260902162313 22 311 1.6 8.0 0.00 0.00 0.00 64 1017.7
20260902161800 22 311 1.6 8.0 0.00 0.00 0.00 63 1017.7
20260902161531 22 300 0.0 4.8 0.00 0.00 0.00 62 1017.6
20260902161249 22 300 1.6 4.8 0.00 0.00 0.00 62 1017.8
20260902160740 23 300 1.6 3.2 0.00 0.00 0.00 61 1017.8
20260902160239 23 300 1.6 3.2 0.00 0.00 0.00 60 1017.8
20260902160010 23 300 0.0 3.2 0.00 0.00 0.00 61 1017.6
20260902155727 23 300 0.0 3.2 0.00 0.00 0.00 60 1017.9
20260902155215 23 300 0.0 4.8 0.00 0.00 0.00 60 1017.9
20260902154709 23 300 1.6 4.8 0.00 0.00 0.00 58 1017.9
20260902154541 23 300 0.0 4.8 0.00 0.00 0.00 58 1017.7
20260902154156 23 300 1.6 4.8 0.00 0.00 0.00 58 1017.9
20260902153648 23 299 1.6 6.4 0.00 0.00 0.00 58 1017.9
20260902153137 23 299 1.6 6.4 0.00 0.00 0.00 57 1017.9
20260902153011 23 299 1.6 6.4 0.00 0.00 0.00 57 1017.7
20260902152625 24 299 1.6 6.4 0.00 0.00 0.00 56 1017.9
20260902151557 24 282 1.6 6.4 0.00 0.00 0.00 57 1017.9
20260902151536 23 282 0.0 6.4 0.00 0.00 0.00 57 1017.7
20260902150533 24 290 3.2 8.0 0.00 0.00 0.00 55 1017.9
20260902150024 23 317 4.8 12.9 0.00 0.00 0.00 54 1018.0
20260902145012 24 238 3.2 11.3 0.00 0.00 0.00 56 1018.0
20260902144537 24 238 3.2 9.7 0.00 0.00 0.00 55 1017.8
20260902144501 24 349 3.2 6.4 0.00 0.00 0.00 55 1018.0
20260902143437 24 302 3.2 11.3 0.00 0.00 0.00 56 1018.1
20260902143105 23 230 1.6 6.4 0.00 0.00 0.00 57 1017.8
20260902142925 24 238 1.6 6.4 0.00 0.00 0.00 57 1018.2
20260902142409 23 227 3.2 8.0 0.00 0.00 0.00 57 1018.2
20260902141849 23 227 6.4 8.0 0.00 0.00 0.00 56 1018.2
20260902141519 23 215 4.8 12.9 0.00 0.00 0.00 56 1018.0
20260902141341 24 243 4.8 12.9 0.00 0.00 0.00 56 1018.2
20260902140830 24 216 6.4 11.3 0.00 0.00 0.00 56 1018.2
20260902140319 24 227 4.8 11.3 0.00 0.00 0.00 54 1018.2
20260902140053 24 183 8.0 11.3 0.00 0.00 0.00 53 1018.1
20260902135807 24 206 4.8 9.7 0.00 0.00 0.00 55 1018.3
20260902135254 24 244 6.4 14.5 0.00 0.00 0.00 55 1018.3
20260902134734 24 241 4.8 14.5 0.00 0.00 0.00 54 1018.5
20260902134502 23 236 3.2 11.3 0.00 0.00 0.00 55 1018.2
20260902134218 23 164 4.8 12.9 0.00 0.00 0.00 56 1018.5
20260902133707 24 126 4.8 11.3 0.00 0.00 0.00 53 1018.5
20260902133152 24 229 4.8 11.3 0.00 0.00 0.00 52 1018.5
20260902133028 23 211 4.8 11.3 0.00 0.00 0.00 52 1018.3
20260902132642 24 327 6.4 12.9 0.00 0.00 0.00 52 1018.6
20260902132129 24 223 4.8 12.9 0.00 0.00 0.00 54 1018.7
20260902131614 24 252 4.8 12.9 0.00 0.00 0.00 55 1018.7
20260902131549 23 212 3.2 12.9 0.00 0.00 0.00 55 1018.4
20260902131102 24 186 4.8 12.9 0.00 0.00 0.00 53 1018.6
20260902130547 24 242 4.8 12.9 0.00 0.00 0.00 55 1018.7
20260902130035 23 254 4.8 11.3 0.00 0.00 0.00 55 1018.7
20260902130009 23 254 3.2 11.3 0.00 0.00 0.00 55 1018.5
20260902124957 23 230 6.4 17.7 0.00 0.00 0.00 53 1018.7
20260902124523 23 239 4.8 12.9 0.00 0.00 0.00 55 1018.6
20260902124446 23 242 4.8 11.3 0.00 0.00 0.00 55 1018.8
20260902123929 23 256 3.2 11.3 0.00 0.00 0.00 56 1019.0
20260902123416 23 244 4.8 11.3 0.00 0.00 0.00 57 1018.9
20260902123043 22 284 1.6 14.5 0.00 0.00 0.00 56 1018.7
20260902122903 23 233 6.4 16.1 0.00 0.00 0.00 55 1019.0
20260902122348 23 231 6.4 14.5 0.00 0.00 0.00 54 1019.0
20260902121832 23 226 8.0 22.5 0.00 0.00 0.00 55 1019.0
20260902121503 23 218 6.4 22.5 0.00 0.00 0.00 55 1018.9
20260902121320 23 241 8.0 22.5 0.00 0.00 0.00 57 1019.1
20260902120816 23 201 4.8 14.5 0.00 0.00 0.00 55 1019.1
20260902120317 23 162 4.8 11.3 0.00 0.00 0.00 60 1019.1
20260902120049 23 333 4.8 11.3 0.00 0.00 0.00 59 1018.9
20260902115802 23 223 6.4 16.1 0.00 0.00 0.00 59 1019.2
20260902115248 23 247 8.0 16.1 0.00 0.00 0.00 58 1019.2
20260902114722 23 248 6.4 12.9 0.00 0.00 0.00 58 1019.3
20260902114657 23 232 8.0 12.9 0.00 0.00 0.00 58 1019.1
20260902114209 23 209 4.8 12.9 0.00 0.00 0.00 58 1019.3
20260902113139 23 243 3.2 12.9 0.00 0.00 0.00 62 1019.3
20260902113012 22 279 1.6 12.9 0.00 0.00 0.00 62 1019.2
20260902112626 23 318 4.8 11.3 0.00 0.00 0.00 61 1019.4
20260902111531 23 247 11.3 19.3 0.00 0.00 0.00 58 1019.2
20260902111044 23 229 6.4 17.7 0.00 0.00 0.00 59 1019.4
20260902110007 23 223 8.0 22.5 0.00 0.00 0.00 58 1019.3
20260902105522 23 234 4.8 22.5 0.00 0.00 0.00 56 1019.5
20260902105004 23 238 6.4 14.5 0.00 0.00 0.00 59 1019.5
20260902104549 22 190 6.4 14.5 0.00 0.00 0.00 58 1019.4
20260902103430 22 250 6.4 12.9 0.00 0.00 0.00 59 1019.5
20260902103109 22 245 4.8 16.1 0.00 0.00 0.00 59 1019.3
20260902102914 23 235 8.0 17.7 0.00 0.00 0.00 62 1019.5
20260902101519 22 222 3.2 11.3 0.00 0.00 0.00 62 1019.5
20260902101342 22 276 4.8 16.1 0.00 0.00 0.00 61 1019.8
20260902100830 22 248 6.4 16.1 0.00 0.00 0.00 62 1019.8
20260902100051 22 232 3.2 14.5 0.00 0.00 0.00 63 1019.6
20260902095809 22 184 6.4 14.5 0.00 0.00 0.00 61 1019.8
20260902095250 22 223 6.4 14.5 0.00 0.00 0.00 61 1019.8
20260902094726 22 170 8.0 14.5 0.00 0.00 0.00 62 1019.8
20260902094501 22 154 3.2 14.5 0.00 0.00 0.00 61 1019.6
20260902094221 22 169 9.7 14.5 0.00 0.00 0.00 60 1019.8
20260902093719 22 208 6.4 14.5 0.00 0.00 0.00 60 1019.8
20260902093207 22 160 4.8 11.3 0.00 0.00 0.00 61 1019.9
20260902093041 22 244 3.2 11.3 0.00 0.00 0.00 62 1019.7
20260902092654 22 184 4.8 9.7 0.00 0.00 0.00 63 1019.9
20260902092152 22 232 4.8 8.0 0.00 0.00 0.00 65 1019.9
20260902091652 22 215 3.2 9.7 0.00 0.00 0.00 62 1019.9
20260902091528 21 216 4.8 9.7 0.00 0.00 0.00 63 1019.7
20260902091137 22 153 3.2 8.0 0.00 0.00 0.00 64 1020.0
20260902090632 21 240 4.8 11.3 0.00 0.00 0.00 65 1020.0
20260902090125 21 233 4.8 11.3 0.00 0.00 0.00 63 1020.1
20260902090100 21 233 4.8 11.3 0.00 0.00 0.00 62 1019.9
20260902085614 21 248 4.8 12.9 0.00 0.00 0.00 65 1020.1
20260902085108 21 188 6.4 17.7 0.00 0.00 0.00 65 1020.1
20260902084602 20 213 8.0 17.7 0.00 0.00 0.00 67 1020.1
20260902084542 20 219 4.8 17.7 0.00 0.00 0.00 67 1019.9
20260902084059 20 240 8.0 17.7 0.00 0.00 0.00 66 1020.1
20260902083551 20 231 6.4 12.9 0.00 0.00 0.00 69 1020.2
20260902083048 20 158 6.4 14.5 0.00 0.00 0.00 69 1020.2
20260902083022 20 157 6.4 12.9 0.00 0.00 0.00 69 1020.0
20260902082539 20 242 4.8 14.5 0.00 0.00 0.00 69 1020.3
20260902082030 20 236 4.8 12.9 0.00 0.00 0.00 69 1020.3
20260902081548 20 284 0.0 12.9 0.00 0.00 0.00 73 1020.1
20260902081001 20 236 4.8 11.3 0.00 0.00 0.00 72 1020.2
20260902080448 19 228 4.8 9.7 0.00 0.00 0.00 72 1020.2
20260902080015 19 242 1.6 8.0 0.00 0.00 0.00 74 1020.0
20260902075934 19 250 3.2 6.4 0.00 0.00 0.00 74 1020.2
20260902075424 19 240 3.2 8.0 0.00 0.00 0.00 73 1020.2
20260902074906 19 237 3.2 11.3 0.00 0.00 0.00 73 1020.2
20260902074636 19 238 1.6 6.4 0.00 0.00 0.00 74 1020.0
20260902074354 19 239 4.8 11.3 0.00 0.00 0.00 75 1020.2
20260902073846 18 240 4.8 11.3 0.00 0.00 0.00 74 1020.1
20260902073334 18 242 4.8 11.3 0.00 0.00 0.00 74 1020.1
20260902073002 18 236 3.2 8.0 0.00 0.00 0.00 75 1019.9
20260902072823 18 207 4.8 8.0 0.00 0.00 0.00 76 1020.0
20260902071532 17 204 3.2 8.0 0.00 0.00 0.00 77 1019.8
20260902071251 17 211 3.2 8.0 0.00 0.00 0.00 77 1020.0
20260902070736 17 224 3.2 6.4 0.00 0.00 0.00 79 1020.0
20260902070225 17 232 3.2 6.4 0.00 0.00 0.00 82 1020.0
20260902070057 17 232 1.6 6.4 0.00 0.00 0.00 82 1019.8
20260902065706 17 219 3.2 4.8 0.00 0.00 0.00 82 1020.0
20260902065156 16 189 1.6 4.8 0.00 0.00 0.00 83 1019.9
20260902064528 16 188 0.0 4.8 0.00 0.00 0.00 83 1019.8
20260902064142 16 188 1.6 6.4 0.00 0.00 0.00 84 1019.9
20260902063624 16 195 3.2 4.8 0.00 0.00 0.00 84 1020.0
20260902063110 16 183 3.2 8.0 0.00 0.00 0.00 84 1019.9
20260902063058 15 183 3.2 8.0 0.00 0.00 0.00 84 1019.8
20260902062558 15 238 1.6 8.0 0.00 0.00 0.00 84 1020.0
20260902062048 15 116 0.0 3.2 0.00 0.00 0.00 86 1019.9
20260902061519 15 116 0.0 3.2 0.00 0.00 0.00 87 1019.7
20260902061034 15 116 1.6 4.8 0.00 0.00 0.00 87 1019.9
20260902060522 15 116 3.2 4.8 0.00 0.00 0.00 87 1019.9
20260902060048 14 206 1.6 4.8 0.00 0.00 0.00 88 1019.7
20260902060011 14 206 1.6 4.8 0.00 0.00 0.00 88 1019.9
20260902054503 13 177 0.0 4.8 0.00 0.00 0.00 91 1019.7
20260902054426 13 177 1.6 4.8 0.00 0.00 0.00 91 1019.9
20260902053912 13 177 1.6 4.8 0.00 0.00 0.00 92 1019.9
20260902053356 13 181 1.6 6.4 0.00 0.00 0.00 93 1019.9
20260902053022 13 182 1.6 6.4 0.00 0.00 0.00 94 1019.7
20260902052843 13 186 3.2 4.8 0.00 0.00 0.00 94 1019.9
20260902052329 13 200 1.6 4.8 0.00 0.00 0.00 95 1019.9
20260902051815 12 219 1.6 4.8 0.00 0.00 0.00 95 1019.8
20260902051556 12 219 0.0 4.8 0.00 0.00 0.00 95 1019.6
20260902051258 12 219 0.0 4.8 0.00 0.00 0.00 95 1019.7
20260902050747 12 219 0.0 3.2 0.00 0.00 0.00 95 1019.7
20260902050230 12 192 0.0 3.2 0.00 0.00 0.00 95 1019.6
20260902050002 11 192 0.0 3.2 0.00 0.00 0.00 95 1019.5
20260902045722 12 192 0.0 1.6 0.00 0.00 0.00 95 1019.6
20260902045205 12 192 0.0 1.6 0.00 0.00 0.00 96 1019.6
20260902044553 12 192 0.0 1.6 0.00 0.00 0.00 96 1019.5
20260902043047 11 192 0.0 3.2 0.00 0.00 0.00 96 1019.4
20260902042553 11 192 0.0 3.2 0.00 0.00 0.00 97 1019.5
20260902042036 11 188 1.6 3.2 0.00 0.00 0.00 97 1019.6
20260902041604 11 188 1.6 4.8 0.00 0.00 0.00 97 1019.4
20260902041523 11 188 1.6 4.8 0.00 0.00 0.00 97 1019.6
20260902041008 11 188 1.6 4.8 0.00 0.00 0.00 97 1019.6
20260902040454 11 229 1.6 4.8 0.00 0.00 0.00 97 1019.6
20260902040016 11 234 1.6 4.8 0.00 0.00 0.00 97 1019.5
20260902035938 11 234 0.0 4.8 0.00 0.00 0.00 97 1019.6
20260902035424 11 234 1.6 3.2 0.00 0.00 0.00 97 1019.6
20260902034908 11 234 1.6 3.2 0.00 0.00 0.00 97 1019.6
20260902034528 11 234 0.0 4.8 0.00 0.00 0.00 97 1019.4
20260902033048 10 250 1.6 4.8 0.00 0.00 0.00 97 1019.4
20260902032804 11 302 0.0 3.2 0.00 0.00 0.00 97 1019.5
20260902031737 10 312 0.0 1.6 0.00 0.00 0.00 97 1019.5
20260902031537 10 312 0.0 1.6 0.00 0.00 0.00 97 1019.3
20260902031235 10 312 0.0 1.6 0.00 0.00 0.00 97 1019.5
20260902030735 10 312 0.0 0.0 0.00 0.00 0.00 97 1019.5
20260902030233 10 312 0.0 1.6 0.00 0.00 0.00 97 1019.5
20260902030010 10 312 0.0 1.6 0.00 0.00 0.00 97 1019.3
20260902025731 10 312 0.0 1.6 0.00 0.00 0.00 97 1019.4
20260902025230 10 312 0.0 1.6 0.00 0.00 0.00 97 1019.4
20260902024720 10 312 0.0 1.6 0.00 0.00 0.00 97 1019.4
20260902024559 10 312 0.0 1.6 0.00 0.00 0.00 97 1019.2
20260902024207 10 312 0.0 1.6 0.00 0.00 0.00 97 1019.4
20260902023141 10 312 0.0 1.6 0.00 0.00 0.00 97 1019.5
20260902023022 10 312 0.0 1.6 0.00 0.00 0.00 97 1019.3
20260902022627 10 312 0.0 0.0 0.00 0.00 0.00 97 1019.6
20260902021621 10 312 0.0 3.2 0.00 0.00 0.00 97 1019.6
20260902021602 10 312 0.0 0.0 0.00 0.00 0.00 97 1019.5
20260902021120 10 312 0.0 3.2 0.00 0.00 0.00 97 1019.6
20260902020606 10 312 0.0 3.2 0.00 0.00 0.00 97 1019.6
20260902020117 10 312 0.0 3.2 0.00 0.00 0.00 97 1019.6
20260902020042 10 312 0.0 3.2 0.00 0.00 0.00 97 1019.4
20260902015556 10 312 0.0 0.0 0.00 0.00 0.00 97 1019.6
20260902015044 10 312 0.0 0.0 0.00 0.00 0.00 97 1019.6
20260902014604 10 312 0.0 0.0 0.00 0.00 0.00 97 1019.4
20260902014525 10 312 0.0 0.0 0.00 0.00 0.00 97 1019.5
20260902014019 10 312 0.0 0.0 0.00 0.00 0.00 96 1019.7
20260902013512 10 312 0.0 0.0 0.00 0.00 0.00 97 1019.6
20260902013040 10 312 0.0 0.0 0.00 0.00 0.00 97 1019.5
20260902013001 10 312 0.0 0.0 0.00 0.00 0.00 97 1019.6
20260902012459 10 312 0.0 0.0 0.00 0.00 0.00 97 1019.7
20260902011950 10 312 0.0 0.0 0.00 0.00 0.00 96 1019.7
20260902011529 10 312 0.0 0.0 0.00 0.00 0.00 96 1019.5
20260902011446 10 312 0.0 0.0 0.00 0.00 0.00 96 1019.7
20260902010941 10 312 0.0 0.0 0.00 0.00 0.00 96 1019.7
20260902010424 10 312 0.0 0.0 0.00 0.00 0.00 96 1019.5
20260902010105 10 312 0.0 0.0 0.00 0.00 0.00 96 1019.4
20260902005922 10 312 0.0 0.0 0.00 0.00 0.00 96 1019.6
20260902005419 10 312 0.0 0.0 0.00 0.00 0.00 96 1019.6
20260902004914 10 312 0.0 0.0 0.00 0.00 0.00 96 1019.6
20260902004648 10 312 0.0 0.0 0.00 0.00 0.00 96 1019.4
20260902003854 10 312 0.0 0.0 0.00 0.00 0.00 96 1019.6
20260902003351 10 312 0.0 0.0 0.00 0.00 0.00 96 1019.5
20260902003125 10 312 0.0 0.0 0.00 0.00 0.00 96 1019.3
20260902002840 10 312 0.0 0.0 0.00 0.00 0.00 96 1019.6
20260902002336 10 312 0.0 0.0 0.00 0.00 0.00 96 1019.6
20260902001837 10 312 0.0 0.0 0.00 0.00 0.00 96 1019.5
20260902001508 10 312 0.0 0.0 0.00 0.00 0.00 96 1019.3
20260902001325 10 312 0.0 0.0 0.00 0.00 0.00 96 1019.6
20260902000301 11 312 0.0 3.2 0.00 0.00 0.00 96 1019.5
20260902000019 10 312 0.0 3.2 0.00 0.00 0.00 96 1019.2
20260901235228 11 312 0.0 0.0 0.00 0.00 0.00 96 1019.5
20260901234717 11 312 0.0 0.0 0.00 0.00 0.00 96 1019.5
20260901234555 10 312 0.0 0.0 0.00 0.00 0.00 96 1019.2
20260901234203 11 312 0.0 0.0 0.00 0.00 0.00 96 1019.5
20260901233651 11 312 0.0 0.0 0.00 0.00 0.00 96 1019.5
20260901233012 11 312 0.0 0.0 0.00 0.00 0.00 96 1019.2
20260901232625 11 312 0.0 0.0 0.00 0.00 0.00 96 1019.4
20260901231545 11 312 0.0 0.0 0.00 0.00 0.00 96 1019.2
20260901230535 11 312 0.0 1.6 0.00 0.00 0.00 95 1019.6
20260901230108 11 312 0.0 0.0 0.00 0.00 0.00 95 1019.3
20260901225509 11 312 0.0 0.0 0.00 0.00 0.00 95 1019.5
20260901225008 11 312 0.0 0.0 0.00 0.00 0.00 95 1019.5
20260901224523 11 312 0.0 0.0 0.00 0.00 0.00 95 1019.3
20260901224005 11 312 0.0 0.0 0.00 0.00 0.00 95 1019.6
20260901223027 11 312 0.0 0.0 0.00 0.00 0.00 95 1019.3
20260901222439 11 312 0.0 0.0 0.00 0.00 0.00 95 1019.5
20260901221930 11 312 0.0 0.0 0.00 0.00 0.00 95 1019.5
20260901221610 11 312 0.0 0.0 0.00 0.00 0.00 95 1019.2
20260901221418 11 312 0.0 0.0 0.00 0.00 0.00 95 1019.4
20260901220918 11 312 0.0 0.0 0.00 0.00 0.00 95 1019.4
20260901220405 11 312 0.0 0.0 0.00 0.00 0.00 95 1019.4
20260901220031 11 312 0.0 0.0 0.00 0.00 0.00 95 1019.2
20260901215336 12 312 0.0 0.0 0.00 0.00 0.00 95 1019.4
20260901214825 12 312 0.0 0.0 0.00 0.00 0.00 94 1019.4
20260901214556 11 312 0.0 0.0 0.00 0.00 0.00 95 1019.1
20260901214317 12 312 0.0 0.0 0.00 0.00 0.00 94 1019.4
20260901213805 12 312 0.0 0.0 0.00 0.00 0.00 94 1019.4
20260901213249 12 312 0.0 0.0 0.00 0.00 0.00 94 1019.4
20260901213026 12 312 0.0 0.0 0.00 0.00 0.00 94 1019.1
20260901212737 12 312 0.0 0.0 0.00 0.00 0.00 94 1019.4
20260901212224 12 312 0.0 0.0 0.00 0.00 0.00 94 1019.4
20260901211714 12 312 0.0 3.2 0.00 0.00 0.00 94 1019.4
20260901211546 12 312 0.0 0.0 0.00 0.00 0.00 94 1019.2
20260901210656 12 312 0.0 3.2 0.00 0.00 0.00 94 1019.5
20260901210156 12 312 0.0 3.2 0.00 0.00 0.00 94 1019.5
20260901210050 12 312 0.0 3.2 0.00 0.00 0.00 94 1019.2
20260901205656 12 312 0.0 3.2 0.00 0.00 0.00 94 1019.5
20260901205147 12 312 0.0 3.2 0.00 0.00 0.00 93 1019.5
20260901204631 12 312 0.0 0.0 0.00 0.00 0.00 93 1019.4
20260901204504 12 312 0.0 1.6 0.00 0.00 0.00 93 1019.2
20260901204118 12 312 0.0 1.6 0.00 0.00 0.00 93 1019.4
20260901203610 13 312 0.0 1.6 0.00 0.00 0.00 93 1019.4
20260901203058 13 312 0.0 1.6 0.00 0.00 0.00 93 1019.4
20260901203034 12 312 0.0 1.6 0.00 0.00 0.00 93 1019.1
20260901202548 13 312 0.0 1.6 0.00 0.00 0.00 93 1019.4
20260901202034 13 312 0.0 1.6 0.00 0.00 0.00 93 1019.3
20260901201558 13 312 0.0 1.6 0.00 0.00 0.00 93 1019.0
20260901201521 13 312 0.0 1.6 0.00 0.00 0.00 93 1019.3
20260901201004 13 312 0.0 1.6 0.00 0.00 0.00 93 1019.3
20260901200450 13 312 0.0 1.6 0.00 0.00 0.00 92 1019.3
20260901200004 13 312 0.0 1.6 0.00 0.00 0.00 92 1019.0
20260901195414 13 312 0.0 1.6 0.00 0.00 0.00 92 1019.2
20260901194900 13 312 0.0 1.6 0.00 0.00 0.00 92 1019.2
20260901194525 13 312 0.0 1.6 0.00 0.00 0.00 92 1018.9
20260901194347 13 312 0.0 1.6 0.00 0.00 0.00 92 1019.2
20260901193830 14 312 0.0 1.6 0.00 0.00 0.00 91 1019.2
20260901193319 14 312 0.0 3.2 0.00 0.00 0.00 91 1019.2
20260901193046 14 312 0.0 1.6 0.00 0.00 0.00 91 1018.9
20260901192250 14 312 1.6 3.2 0.00 0.00 0.00 91 1019.2
20260901191513 14 312 1.6 4.8 0.00 0.00 0.00 91 1018.9
20260901191225 15 312 0.0 3.2 0.00 0.00 0.00 90 1019.2
20260901190156 15 312 0.0 0.0 0.00 0.00 0.00 90 1019.2
20260901190030 15 312 0.0 0.0 0.00 0.00 0.00 89 1018.9
20260901185642 15 312 0.0 0.0 0.00 0.00 0.00 89 1019.2
20260901184608 15 312 0.0 1.6 0.00 0.00 0.00 88 1019.2
20260901184544 15 312 0.0 1.6 0.00 0.00 0.00 88 1018.8
20260901184054 15 312 0.0 3.2 0.00 0.00 0.00 89 1019.1
20260901183121 15 312 0.0 0.0 0.00 0.00 0.00 87 1018.8
20260901182510 16 312 0.0 0.0 0.00 0.00 0.00 87 1019.1
20260901181521 16 312 0.0 0.0 0.00 0.00 0.00 85 1018.7
20260901180928 16 312 0.0 0.0 0.00 0.00 0.00 85 1018.9
20260901180415 16 312 0.0 0.0 0.00 0.00 0.00 84 1018.8
20260901180040 16 312 0.0 0.0 0.00 0.00 0.00 84 1018.5
20260901175900 17 312 0.0 0.0 0.00 0.00 0.00 84 1018.8
20260901175347 17 312 0.0 0.0 0.00 0.00 0.00 83 1018.7
20260901174834 17 312 0.0 0.0 0.00 0.00 0.00 82 1018.7
20260901174603 17 312 0.0 0.0 0.00 0.00 0.00 82 1018.3
20260901174318 17 312 0.0 0.0 0.00 0.00 0.00 81 1018.7
20260901173242 18 312 0.0 0.0 0.00 0.00 0.00 80 1018.6
20260901173012 18 312 0.0 0.0 0.00 0.00 0.00 79 1018.2
20260901172728 18 312 0.0 1.6 0.00 0.00 0.00 79 1018.5
20260901172216 18 312 0.0 3.2 0.00 0.00 0.00 78 1018.6
20260901171704 19 312 0.0 3.2 0.00 0.00 0.00 77 1018.6
20260901171548 18 312 0.0 3.2 0.00 0.00 0.00 76 1018.2
20260901171203 19 312 0.0 1.6 0.00 0.00 0.00 76 1018.6
20260901170634 19 312 0.0 1.6 0.00 0.00 0.00 76 1018.5
20260901170121 20 312 0.0 1.6 0.00 0.00 0.00 75 1018.5
20260901170100 19 312 0.0 1.6 0.00 0.00 0.00 75 1018.1
20260901165050 20 312 0.0 1.6 0.00 0.00 0.00 74 1018.3
20260901164532 20 312 0.0 3.2 0.00 0.00 0.00 74 1018.3
20260901164506 20 312 0.0 1.6 0.00 0.00 0.00 74 1018.0
20260901164031 20 312 0.0 3.2 0.00 0.00 0.00 72 1018.3
20260901163509 20 312 1.6 3.2 0.00 0.00 0.00 72 1018.5